Location: Unspecified
(40.5530°N, 74.2920°W)
Time: 19:07:56
(UTC+00:00)

Daily predictions for brighter satellites

Satellite Brightness Start Highest point End
(mag) Time Altitude Azimuth Time Altitude Azimuth Time Altitude Azimuth
Cosmos 2221 Rocket 3.7 21:55:59 10° S 22:00:31 82° E 22:05:06 10° N
SMAP 3.3 21:56:58 10° SE 22:01:23 46° ENE 22:05:51 10° N
SeaSat 1 2.4 22:01:20 10° SSE 22:06:16 83° ENE 22:11:13 10° NNW
Cosmos 2366 rocket 4.1 22:02:35 10° SSE 22:08:33 56° E 22:14:34 10° NNE
Cosmos 841 Rocket 3.6 22:04:24 10° NNW 22:09:37 86° WSW 22:14:46 10° SSE
Cosmos 1812 3.4 22:06:01 10° SSW 22:09:47 59° W 22:13:36 10° N
SL-24 DEB 4.3 22:06:51 10° SSE 22:11:34 63° E 22:16:18 10° N
Cosmos 1536 3.7 22:10:12 10° NNW 22:14:10 55° W 22:18:08 10° S
Okean 1 3.8 22:12:15 10° SSE 22:16:00 39° E 22:19:48 10° NNE
BREEZE-M DEB (TANK) 2.9 22:10:14 10° WNW 22:16:47 72° SSW 22:19:47 10° SE
COSMO-SKYMED 1 3.7 22:15:51 10° NE 22:19:26 25° E 22:22:59 10° SSE
Geosat 4.2 22:14:27 10° NNE 22:19:29 74° WNW 22:24:28 10° SW
Cosmos 2218 Rocket 4.0 22:13:47 10° S 22:19:57 77° E 22:26:15 10° N
CZ-4 R/B 2.3 22:16:44 10° SE 22:20:23 29° ENE 22:24:03 10° N
EO 1 Delta rocket 4.5 22:18:17 10° N 22:22:53 63° WNW 22:28:05 10° SSW
YAOGAN 1 3.5 22:24:17 10° SE 22:27:53 26° ENE 22:31:29 10° NNE
Cosmos 540 Rocket 3.5 22:22:51 10° NNW 22:28:00 89° WSW 22:33:06 10° SSE
Radarsat 4.5 22:22:55 10° SSE 22:28:05 78° ENE 22:33:18 10° N
SL-16 R/B 2.3 22:24:15 10° SSW 22:29:55 86° WNW 22:35:37 10° NNE
ALOS 2.4 22:27:22 10° S 22:32:02 83° WSW 22:36:44 10° NNW
Lacrosse 5 rocket 2.7 22:28:15 10° S 22:32:13 29° SE 22:34:55 17° ENE
Okean 3 3.4 22:31:04 10° S 22:35:21 72° E 22:39:40 10° NNE
ISS -3.8 22:34:49 10° NW 22:38:05 81° SW 22:41:19 10° SE
SL-08 R/B 4.5 22:37:58 10° S 22:44:06 87° E 22:50:22 10° N
Okean 1 Rocket 3.4 22:40:59 10° N 22:45:11 42° ENE 22:49:20 10° SSE
Cosmos 1378 Rocket 3.7 22:42:24 10° SSE 22:46:37 49° E 22:50:50 10° NNE
SWAS 4.4 22:43:59 10° SSW 22:48:14 72° ESE 22:51:26 17° NNE
Cosmos 1727 Rocket 3.9 22:43:24 10° N 22:49:42 85° E 22:55:53 10° S
Cosmos 192 4.2 22:44:46 10° NNW 22:49:45 77° ENE 22:54:42 10° SSE
Ariane Rocket 3.2 22:48:00 10° SE 22:52:49 46° ENE 22:57:39 10° N
GPS 2-04 Rocket1 4.4 22:49:18 10° WSW 22:53:00 31° SSW 22:56:43 10° SE
OE (NEXTSAT) 4.2 22:50:12 10° WNW 22:53:42 76° NNE 22:55:19 30° ESE
GPS 2-05 Rocket1 4.3 22:54:30 10° WSW 22:57:11 27° S 22:58:53 17° SE
Cosmos 1666 3.0 22:53:32 10° NNW 22:57:24 68° W 23:01:13 10° S
Lacrosse 5 3.9 22:58:50 10° NNW 23:00:51 12° N 23:02:01 11° NNE
Cosmos 1844 Rocket 3.2 23:01:22 10° N 23:06:34 35° ENE 23:08:24 28° E
Cosmos 968 Rocket 3.4 23:01:27 10° SSW 23:06:43 86° ESE 23:11:05 15° NNE
Cosmos 1743 2.8 23:02:54 10° N 23:06:45 78° W 23:10:34 10° S
Cosmos 2219 Rocket 3.3 23:03:02 10° SSE 23:06:57 23° ESE 23:06:57 23° ESE
SKYMED 2 3.5 23:03:30 11° NNE 23:07:42 86° E 23:12:03 10° SSW
ERBS 3.6 23:05:51 10° WSW 23:08:56 34° NW 23:10:05 26° N
Cosmos 1932 4.4 23:02:53 10° SSW 23:09:05 73° ESE 23:13:01 24° NE
Cosmos 1934 Rocket 4.3 23:04:47 10° SSE 23:10:36 42° E 23:14:47 18° NNE
COSMOS 2428 3.4 23:05:43 10° SSE 23:10:39 31° ESE 23:11:13 30° E
Meteor 2-4 Rocket 3.7 23:07:12 10° S 23:12:46 57° E 23:17:00 17° NNE
H-2A R/B 2.7 23:10:17 10° SSE 23:14:09 87° WSW 23:18:05 10° NNW
Cosmos 2263 Rocket 3.4 23:09:03 10° NW 23:14:26 44° WSW 23:19:44 10° S
BREEZE M DEB (TANK) 3.3 23:11:35 10° WNW 23:14:36 85° NE 23:23:51 10° ESE
Cosmos 724 4.5 23:10:03 10° S 23:15:48 52° ESE 23:18:11 34° ENE
Cosmos 1000 Rocket 4.3 23:10:26 10° N 23:16:35 70° E 23:22:42 10° SSE
Cosmos 2322 Rocket 3.5 23:15:24 10° SW 23:20:39 37° WNW 23:25:55 10° N
FengYun 1-2 T 4.1 23:15:35 10° SSE 23:21:00 62° ENE 23:26:31 10° N
Cosmos 1975 4.1 23:23:38 10° NNW 23:27:29 42° W 23:31:18 10° SSW
Shenzhou-11 Module 3.7 23:26:36 10° SW 23:28:17 27° SSW 23:28:17 27° SSW
IRS-1A Rocket 4.2 23:25:39 10° SSE 23:31:30 76° ENE 23:37:19 10° N
Cosmos 2333 4.2 23:26:19 10° S 23:31:50 58° ESE 23:32:53 49° ENE
Cosmos 2278 Rocket 4.3 23:29:00 10° N 23:29:28 11° N 23:29:28 11° N
Cosmos 2333 Rocket 3.0 23:30:14 10° S 23:34:13 33° SE 23:34:13 33° SE
Cosmos 2360 Rocket 2.6 23:30:14 10° SW 23:35:46 60° WNW 23:39:25 22° N
Gbstr 26 Del rocket 4.3 23:30:32 10° SSW 23:37:59 56° SE 23:39:34 46° E
Delta 2 Rocket 4.1 23:36:55 10° WSW 23:40:41 43° S 23:40:41 43° S
DMSP B5D1-3 4.4 23:39:39 37° NNE 23:41:45 88° ESE 23:46:52 10° SSW
MOS 1 4.2 23:36:33 10° SSE 23:42:11 68° ENE 23:47:52 10° N
CZ-4C R/B 4.3 23:44:16 10° NNW 23:47:30 18° NNE 23:47:30 18° NNE
USA 215 4.0 23:49:30 34° NNE 23:49:30 34° NNE 23:55:15 10° NW
Envisat 2.9 23:49:17 10° SSE 23:54:22 87° WSW 23:59:28 10° NNW
CZ-4 R/B 3.9 23:52:03 10° SSW 23:55:23 23° W 23:58:45 10° NW
COSMO-SKYMED 1 4.4 23:52:03 11° NNW 23:55:33 28° WNW 23:59:15 10° SW
